Flag for Cameroon Weather past 2 weeks in Bamenda, Cameroon

Now
82 °F

Passing clouds.


Feels Like: 91 °F
Forecast: 60 / 79 °F
Wind: 9 mph from Southwest

Location: Douala Obs.

Current Time: May 29, 2015 at 8:07:24 PM

Latest Report: May 29, 2015 at 7:00 PM


Visibility: N/A

Pressure: 29.80 "Hg

Humidity: 84%

Dew point: 77 °F

Location of BamendaLocation

Historic Weather in Bamenda — Graph

°F

Bamenda temperature yesterday

Maximum temperature yesterday: 88 °F (at 11:00 AM)
Minimum temperature yesterday: 75 °F (at 10:00 PM)
Average temperature yesterday: 82 °F

Past Weeks' High & Low Weather Summary

 TemperatureHumidityPressure
High93 °F (May 19, 1:00 PM)100% (May 15, 1:00 AM)29.98 "Hg (May 15, 1:00 AM)
Low73 °F (May 18, 5:00 AM)56% (May 19, 1:00 PM)29.74 "Hg (May 15, 4:00 PM)
Average82 °F84%29.86 "Hg
* Reported May 14 7:00 PM — May 29 7:00 PM, Bamenda, Weather by CustomWeather, © 2015

Note: Actual official high and low records may vary slightly from our data, if they occured in-between our weather recording intervals... More about our weather records

Advertising

Bamenda weather history for previous 24 hours

 ConditionsComfort  
Time TempWeatherWind HumidityBarometerVisibility
7:00 PM
Fri, May 29
82 °FPassing clouds.9 mph84%29.80 "HgN/A
6:00 PM82 °FPartly sunny.9 mph84%29.80 "HgN/A
5:00 PM84 °FPartly sunny.9 mph79%29.77 "HgN/A
4:00 PM86 °FBroken clouds.9 mph75%29.77 "HgN/A
3:00 PM88 °FPartly sunny.7 mph70%29.80 "HgN/A
2:00 PM86 °FPartly sunny.No wind75%29.86 "HgN/A
1:00 PM86 °FPartly sunny.No wind75%29.86 "HgN/A
12:00 PM84 °FPartly sunny.No wind74%29.89 "HgN/A
11:00 AM82 °FPartly sunny.No wind79%29.89 "HgN/A
10:00 AM79 °FPartly sunny.No wind89%29.89 "HgN/A
9:00 AM77 °FPartly sunny.No wind89%29.89 "Hg4 mi
8:00 AM75 °FLight rain. Partly sunny.No wind94%29.86 "Hg4 mi
7:00 AM73 °FPartly sunny.No wind100%29.83 "Hg4 mi
6:00 AM73 °FPassing clouds.No wind100%29.83 "Hg4 mi
5:00 AM73 °FPassing clouds.No wind100%29.83 "Hg5 mi
4:00 AM75 °FPassing clouds.No wind94%29.80 "Hg5 mi
3:00 AM75 °FThunderstorms. Partly cloudy.No wind100%29.83 "HgN/A
2:00 AM75 °FThunderstorms. Partly cloudy.No wind100%29.83 "HgN/A
1:00 AM75 °FThunderstorms. Partly cloudy.No wind94%29.83 "HgN/A
12:00 AM75 °FThunderstorms. Partly cloudy.No wind94%29.83 "HgN/A
11:00 PM
Thu, May 28
75 °FThunderstorms. Partly cloudy.No wind94%29.86 "HgN/A
10:00 PM75 °FThunderstorms. Partly cloudy.7 mph94%29.86 "Hg4 mi
9:00 PM81 °FThunderstorms. Mostly cloudy.14 mph74%29.86 "HgN/A
8:00 PM82 °FThunderstorms. Passing clouds.7 mph84%29.80 "HgN/A
Weather by CustomWeather, © 2015

See weather overviewHow to use our weather pages